www.pogodaiklimat.ru
ПОГОДА в Лемланд Нихамн
Время
(UTC), дата
19 22.10
20 22.10
21 22.10
22 22.10
23 22.10
00 23.10
01 23.10
02 23.10
03 23.10
04 23.10
05 23.10
06 23.10
07 23.10
08 23.10
09 23.10
10 23.10
11 23.10
12 23.10
13 23.10
14 23.10
15 23.10
16 23.10
17 23.10
18 23.10
19 23.10
20 23.10
21 23.10
22 23.10
23 23.10
00 24.10
01 24.10
02 24.10
03 24.10
04 24.10
05 24.10
06 24.10
07 24.10
08 24.10
09 24.10
10 24.10
11 24.10
12 24.10
13 24.10
14 24.10
15 24.10
16 24.10
17 24.10
18 24.10
19 24.10
20 24.10
21 24.10
22 24.10
23 24.10
00 25.10
01 25.10
02 25.10
03 25.10
04 25.10
05 25.10
06 25.10
07 25.10
08 25.10
09 25.10
10 25.10
11 25.10
12 25.10
13 25.10
14 25.10
15 25.10
16 25.10
17 25.10
18 25.10
19 25.10
20 25.10
21 25.10
22 25.10
23 25.10
00 26.10
01 26.10
02 26.10
03 26.10
04 26.10
05 26.10
06 26.10
07 26.10
08 26.10
09 26.10
10 26.10
11 26.10
12 26.10
13 26.10
14 26.10
15 26.10
16 26.10
17 26.10
18 26.10
19 26.10
20 26.10
21 26.10
22 26.10
23 26.10
00 27.10
01 27.10
02 27.10
03 27.10
04 27.10
05 27.10
06 27.10
07 27.10
08 27.10
09 27.10
10 27.10
11 27.10
12 27.10
13 27.10
14 27.10
15 27.10
16 27.10
17 27.10
18 27.10
19 27.10
20 27.10
21 27.10
22 27.10
23 27.10
00 28.10
01 28.10
02 28.10
03 28.10
04 28.10
05 28.10
06 28.10
07 28.10
08 28.10
09 28.10
10 28.10
11 28.10
12 28.10
13 28.10
14 28.10
15 28.10
16 28.10
17 28.10
18 28.10
19 28.10
20 28.10
21 28.10
22 28.10
23 28.10
00 29.10
01 29.10
02 29.10
03 29.10
04 29.10
05 29.10
06 29.10
07 29.10
08 29.10
09 29.10
10 29.10
11 29.10
12 29.10
13 29.10
14 29.10
15 29.10
16 29.10
17 29.10
18 29.10
19 29.10
Ветер
(напр.,м/с)
Видим. Явления Облачность Т
(С)
Тd
(С)
f
(%)
Тe
(С)
Тes
(С)
Комфортность P
(гПа)
Po
(гПа)
Тmin
(С)
Tmax
(С)
R
(мм)
R24
(мм)
S
(см)
ЮЗ 3-4
{6}
20 км слаб. дождь 10/10 300 м +9.7 +9.2 97 +7 +7 997.2 996.0
Ю 8-9
{9}
13 км слаб. дождь 10/10 100 м +10.0 +9.7 98 +6 +6 996.5 995.3
ЮЗ 9-10
{10}
16 км слаб. дождь {морось} 10/10 1440 м +10.7 +10.4 98 +7 +7 995.8 994.5
ЮЗ 10-11
{12}
6000 м слаб. дождь 10/10 1440 м +10.8 +10.6 99 +6 +6 995.0 993.8
ЮЗ 11-12
{13}
19 км в посл. час дождь 9/6 600 м +10.9 +10.5 97 +6 +6 994.6 993.3
ЮЗ 11-13
{13}
30 км в посл. час дождь со снегом {ливн. дождь} 10/10 1500 м +11.1 +10.0 93 +7 +7 994.4 993.2
ЮЗ 11-13
{13}
30 км в посл. час дождь 9/1 300 м +10.8 +9.9 94 +6 +6 994.2 992.9
ЮЗ 12-14
{15}
26 км 8/5 1500 м +10.8 +9.4 91 +6 +6 994.0 992.8
СЗ 6-7
{14}
6000 м ливневой дождь 10/10 400 м +9.3 +8.8 97 +5 +5 994.2 993.0
С 5-7
{7}
15 км слаб. ливневой дождь 10/10 500 м +8.4 +7.9 97 +5 +5 994.3 993.0
С 5-7
{7}
30 км в посл. час морось 10/10 1020 м +7.8 +7.3 97 +4 +4 994.7 993.5
С 8-10
{10}
20 км в посл. час снег {ливн. снег, дождь} 10/10 100 м +7.2 +6.6 96 +2 +2 995.3 994.1 +7.2 +11.1
С 8-10
{11}
40 км 10/10 200 м +6.5 +5.6 94 +1 +1 996.4 995.2
С 8-11
{12}
50 км в посл. час морось 10/10 1020 м +6.0 +4.2 88 0 0 997.6 996.4
С 8-10
{12}
45 км {ливн. дождь, морось} 9/9 300 м +5.8 +3.5 85 0 0 998.5 997.3
С 9-11
{13}
50 км 9/9 300 м +5.8 +2.7 80 0 0 999.4 998.1
СЗ 10-12
{13}
50 км 10/10 600 м +5.7 +1.9 77 -0 -0 1000.5 999.2
СЗ 10-15
{15}
50 км {ливн. дождь, морось} 9/9 600 м +5.2 +1.1 75 -1 -1 1001.5 1000.3
С 10-12
{13}
45 км 9/9 600 м +5.1 +1.4 77 -1 -1 1002.4 1001.1
СЗ 9-11
{13}
50 км 8/8 600 м +5.2 +1.4 76 -1 -1 1003.1 1001.8
С 8-10
{12}
50 км 9/9 600 м +5.0 +0.5 73 -1 -1 1003.9 1002.6
С 8-12
{12}
50 км 9/9 600 м +4.8 -0.6 68 -1 -1 1004.2 1002.9
С 7-9
{11}
50 км 5/5 600 м +5.0 -0.4 68 -0 -0 1004.7 1003.4
СЗ 6-8
{10}
50 км 5/5 600 м +5.1 +0.1 70 0 0 1005.2 1003.9 +4.7 +7.1
СЗ 6-8
{8}
50 км 3/3 600 м +5.4 +1.5 76 +1 +1 1005.3 1004.0
З 6-8
{9}
50 км 8/8 600 м +5.0 +0.9 75 0 0 1005.9 1004.6
З 6-9
{9}
50 км 8/8 600 м +4.9 +0.8 75 -0 -0 1006.1 1004.8
З 5-7
{7}
50 км 3/3 600 м +4.6 +0.4 74 0 0 1006.0 1004.8
З 5-7
{8}
50 км 1/1 600 м +4.5 +0.3 74 -0 -0 1005.9 1004.6
З 5-7
{7}
50 км 5/5 600 м +4.6 +0.6 75 0 0 1005.8 1004.5
З 5-6
{8}
50 км 4/4 600 м +4.6 +0.2 73 0 0 1005.6 1004.3
З 6-7
{7}
50 км 3/3 300 м +4.7 +0.8 76 -0 -0 1005.3 1004.0
З 5-7
{8}
50 км 5/1 300 м +4.8 +1.2 77 0 0 1005.3 1004.0
З 4-5
{7}
50 км 1/1 600 м +4.6 +0.7 76 +1 +1 1004.8 1003.6
ЮЗ 4-5
{6}
50 км 9/9 1000 м +5.1 +1.4 77 +1 +1 1004.5 1003.2
ЮЗ 4-5
{6}
50 км 4/3 600 м +5.2 +1.0 74 +1 +1 1004.3 1003.0 +4.5 +5.5
ЮЗ 4-5
{5}
50 км 8/8 +5.6 +1.7 76 +2 +2 1004.2 1002.9
ЮЗ 4-6
{6}
50 км 8/1 300 м +6.1 +2.0 75 +2 +3 1004.1 1002.8
Ю 3-4
{5}
35 км слаб. дождь {морось} 10/10 1000 м +6.3 +3.3 81 +3 +3 1003.9 1002.6
В 4-6
{6}
40 км морось 10/10 600 м +6.5 +3.7 82 +3 +3 1002.9 1001.7
В 8-9
{9}
12 км слаб. ливневой дождь 10/10 300 м +6.5 +4.6 88 +1 +1 1002.2 1001.0
В 10-11
{11}
5000 м ливневой дождь 10/10 200 м +6.8 +6.0 95 +1 +1 1001.6 1000.3
В 9-11
{12}
6000 м слаб. морось 10/10 100 м +7.1 +6.6 97 +2 +2 1001.0 999.8
В 8-11
{12}
17 км в посл. час дождь 10/10 100 м +6.6 +6.1 97 +1 +1 1000.7 999.5
СВ 9-10
{13}
11 км в посл. час снег {ливн. снег, дождь} 10/10 100 м +6.6 +6.0 96 +1 +1 1001.3 1000.0
СВ 7-9
{11}
40 км 10/10 100 м +6.6 +6.0 96 +1 +1 1001.9 1000.6
СВ 7-9
{10}
29 км 10/10 100 м +6.5 +5.7 95 +1 +1 1002.7 1001.4
СВ 4-7
{9}
5000 м дымка {ливн. дождь, дождь} 10/10 100 м +6.4 +5.7 95 +2 +2 1003.8 1002.6 +5.2 +7.4
С 6-7
{7}
50 км 10/10 600 м +6.4 +5.7 95 +2 +2 1004.7 1003.5
-8
{8}
3500 м слаб. дождь 10/10 100 м +5.8 +5.2 96 1005.4 1004.1
С 4-5
{7}
50 км в посл. час дождь со снегом {ливн. дождь} 10/10 200 м +5.7 +4.2 90 +2 +2 1005.9 1004.7
СЗ 4-5
{6}
50 км 9/9 300 м +6.0 +3.1 82 +2 +2 1006.9 1005.6
СЗ 3-4
{5}
50 км ясно +6.0 +2.4 78 +3 +3 1006.9 1005.7
З 4-5
{5}
50 км {ливн. дождь, снег} 4/1 600 м +6.6 +2.0 72 +3 +3 1007.5 1006.2
З 3-4
{5}
50 км 6/6 300 м +6.5 +3.0 78 +4 +4 1007.8 1006.5
З 3-4
{4}
50 км 3/3 300 м +6.2 +3.8 85 +3 +3 1007.9 1006.6
ЮЗ 5-6
{6}
50 км 5/1 300 м +6.3 +3.9 85 +2 +2 1008.0 1006.8
Ю 7-9
{9}
50 км 8/8 300 м +6.5 +4.0 84 +2 +2 1008.4 1007.1
Ю 8-10
{10}
50 км 8/8 300 м +7.0 +4.9 86 +2 +2 1007.9 1006.6
Ю 8-9
{10}
50 км 9/9 1000 м +7.7 +5.5 86 +3 +3 1007.8 1006.6 +5.6 +7.7
Ю 9-11
{11}
50 км 5/5 300 м +8.4 +6.5 88 +3 +3 1007.7 1006.4
Ю 12-13
{13}
45 км ясно +9.0 +6.8 86 +4 +4 1007.5 1006.2
Ю 11-13
{13}
50 км ясно +9.4 +7.4 87 +4 +4 1007.3 1006.0
Ю 12-14
{15}
40 км 3/3 300 м +9.8 +8.0 89 +5 +5 1007.1 1005.8
Ю 13-15
{15}
30 км 10/10 1000 м +10.0 +8.8 92 +5 +5 1006.5 1005.3
Ю 12-14
{15}
12 км ливневой дождь 10/10 700 м +10.4 +9.5 94 +6 +6 1006.0 1004.7
Ю 13-14
{15}
5000 м морось 10/10 200 м +10.4 +9.6 95 +5 +5 1005.3 1004.1
Ю 14-16
{17}
15 км в посл. час морось 10/10 1000 м +10.7 +9.9 95 +6 +6 1004.7 1003.5
Ю 13-14
{15}
12 км {ливн. дождь, дождь} 10/10 1140 м +10.8 +10.3 97 +6 +6 1004.4 1003.2
Ю 13-16
{16}
9000 м дымка 10/10 1300 м +11.0 +10.4 96 +6 +6 1004.2 1002.9
Ю 14-16
{17}
9000 м дымка 10/10 1000 м +11.0 +10.4 96 +6 +6 1003.6 1002.4
Ю 14-17
{17}
8000 м дымка {ливн. дождь, дождь} 9/9 1000 м +11.0 +10.3 95 +6 +6 1003.2 1002.0 +7.7 +11.1
Ю 14-16
{16}
10 км 10/10 1230 м +11.1 +10.4 95 +6 +6 1003.3 1002.0
Ю 12-14
{16}
14 км 10/10 200 м +11.0 +10.2 95 +6 +6 1003.4 1002.2
Ю 11-13
{14}
18 км 10/10 300 м +10.9 +10.0 94 +6 +6 1003.2 1002.0
Ю 11-13
{13}
17 км 10/10 300 м +11.1 +10.1 94 +7 +7 1003.2 1001.9
Ю 12-14
{14}
17 км 10/6 300 м +11.1 +10.0 93 +7 +7 1002.8 1001.6
Ю 11-14
{14}
17 км 9/6 300 м +11.2 +10.1 93 +7 +7 1003.0 1001.7
Ю 11-13
{13}
16 км 10/1 300 м +11.2 +10.3 94 +7 +7 1002.5 1001.2
Ю 13-14
{14}
14 км 10/10 1500 м +11.0 +10.4 96 +6 +6 1002.1 1000.9
Ю 13-15
{16}
13 км {ливн. дождь} 10/9 1000 м +11.1 +10.4 95 +6 +6 1001.8 1000.5
Ю 12-14
{15}
11 км слаб. ливневой дождь 10/4 600 м +11.0 +10.3 95 +6 +6 1001.7 1000.5
Ю 13-15
{15}
9000 м слаб. ливневой дождь 10/10 300 м +11.2 +10.5 95 +7 +7 1001.9 1000.7
Ю 12-14
{15}
6000 м ливневой дождь 10/10 300 м +11.0 +10.4 96 +6 +6 1002.1 1000.8 +10.9 +11.3
Ю 12-14
{15}
6000 м слаб. ливневой дождь 10/10 200 м +11.0 +10.4 96 +6 +6 1002.5 1001.2
Ю 13-15
{15}
8000 м в посл. час дождь 10/10 300 м +11.0 +10.4 96 +6 +6 1002.7 1001.4
Ю 12-14
{15}
8000 м дымка {ливн. дождь} 10/10 600 м +11.0 +10.3 95 +6 +6 1003.2 1001.9
Ю 12-14
{15}
7000 м дымка 10/10 1230 м +11.0 +10.2 95 +6 +6 1003.1 1001.8
Ю 12-14
{14}
6000 м дымка 10/10 300 м +11.0 +10.2 95 +6 +6 1003.4 1002.2
Ю 11-12
{14}
3600 м ливневой дождь {морось} 10/10 200 м +10.7 +10.3 97 +6 +6 1003.9 1002.7
Ю 10-11
{13}
5000 м дымка 10/10 200 м +10.7 +10.2 97 +6 +6 1004.3 1003.1
Ю 9-10
{11}
6000 м дымка 10/10 200 м +10.7 +10.1 96 +7 +7 1003.8 1002.6
Ю 10-11
{11}
6000 м дымка {ливн. дождь} 10/10 200 м +10.7 +10.1 96 +6 +6 1004.0 1002.8
Ю 10-12
{12}
5000 м дымка 10/10 200 м +10.7 +10.1 96 +6 +6 1004.4 1003.2
Ю 11-12
{13}
3300 м слаб. дождь 10/10 200 м +10.6 +10.3 98 +6 +6 1004.0 1002.8
Ю 10-11
{13}
3400 м морось {ливн. дождь, дождь} 10/10 300 м +10.6 +10.2 97 +6 +6 1004.1 1002.9 +10.5 +11.4
Ю 9-10
{11}
2400 м слаб. дождь 10/10 420 м +10.5 +10.2 98 +6 +6 1004.5 1003.2
Ю 9-10
{11}
2900 м морось 10/10 100 м +10.5 +10.3 99 +6 +6 1004.2 1003.0
Ю 10-11
{11}
4200 м в посл. час дождь 10/10 300 м +10.5 +10.2 98 +6 +6 1003.8 1002.6
Ю 11-12
{12}
4000 м дымка 10/10 200 м +10.6 +10.2 97 +6 +6 1003.6 1002.3
Ю 11-12
{13}
6000 м морось 10/10 100 м +10.7 +10.3 97 +6 +6 1003.4 1002.2
Ю 9-11
{13}
5000 м слаб. дождь 10/10 100 м +10.6 +10.2 97 +6 +6 1002.9 1001.6
Ю 11-12
{13}
6000 м в посл. час дождь 10/10 100 м +10.8 +10.3 97 +6 +6 1002.1 1000.8
Ю 10-12
{13}
5000 м дымка 10/10 100 м +10.8 +10.4 97 +6 +6 1001.5 1000.3
Ю 12-14
{14}
5000 м дымка {ливн. дождь, дождь} 10/10 100 м +10.9 +10.5 97 +6 +6 1001.0 999.8
Ю 12-14
{15}
3000 м слаб. ливневой дождь 10/10 100 м +10.9 +10.5 97 +6 +6 1000.3 999.1
Ю 11-13
{16}
5000 м в посл. час морось 10/10 1020 м +10.9 +10.4 97 +6 +6 1000.2 998.9
Ю 9-10
{14}
4500 м дымка {ливн. дождь, дождь} 10/10 540 м +10.4 +10.0 97 +6 +6 1000.4 999.2 +10.4 +11.0
Ю 9-12
{12}
3400 м дымка 10/10 100 м +10.4 +10.1 98 +6 +6 1000.6 999.4
ЮЗ 7-8
{10}
9000 м дымка 9/8 600 м +10.2 +9.7 97 +6 +6 1001.4 1000.2
ЮЗ 6-7
{9}
16 км 9/8 600 м +10.1 +9.3 95 +7 +7 1001.9 1000.7
ЮЗ 6-7
{8}
35 км 8/8 +10.2 +9.1 93 +7 +7 1002.5 1001.3
ЮЗ 7-9
{9}
35 км 1/1 +10.1 +8.9 92 +6 +7 1002.9 1001.6
ЮЗ 8-9
{9}
30 км ясно +10.1 +8.9 92 +6 +6 1002.8 1001.5
Ю 9-10
{10}
35 км ясно +10.3 +9.3 94 +6 +6 1003.1 1001.8
Ю 10-11
{11}
30 км ясно +10.3 +9.3 94 +6 +6 1003.3 1002.1
Ю 9-11
{12}
26 км 6/6 +10.3 +9.3 94 +6 +6 1003.3 1002.1
Ю 10-11
{12}
20 км 9/1 300 м +10.2 +8.9 92 +6 +6 1003.4 1002.2
Ю 10-12
{12}
20 км 9/9 +10.2 +8.5 89 +6 +6 1003.2 1002.0
ЮЗ 11-12
{14}
22 км 8/3 1500 м +10.1 +8.1 87 +5 +5 1003.3 1002.1 +10.1 +10.5
Ю 8-9
{12}
21 км 10/10 1000 м +10.1 +8.8 92 +6 +6 1003.1 1001.8
Ю 10-12
{12}
16 км слаб. ливневой дождь 9/9 1470 м +10.3 +9.3 94 +6 +6 1002.6 1001.4
Ю 11-13
{13}
18 км ливневой дождь 10/10 1000 м +10.5 +9.5 94 +6 +6 1002.2 1000.9
Ю 11-13
{13}
19 км слаб. ливневой дождь 9/9 540 м +10.3 +8.7 90 +6 +6 1001.8 1000.6
ЮЗ 10-11
{14}
15 км 6/6 570 м +10.3 +9.2 93 +6 +6 1001.7 1000.5
ЮЗ 10-12
{12}
20 км {ливн. дождь, дождь} 9/9 2000 м +10.2 +8.9 92 +6 +6 1001.6 1000.4
ЮЗ 10-12
{13}
26 км ясно +10.1 +8.3 89 +6 +6 1001.6 1000.3
ЮЗ 11-13
{13}
23 км ясно +9.9 +8.1 89 +5 +5 1001.7 1000.4
ЮЗ 12-13
{15}
23 км ясно +9.9 +7.7 86 +5 +5 1001.6 1000.4
ЮЗ 12-14
{15}
20 км ясно +9.9 +7.7 86 +5 +5 1001.8 1000.5
ЮЗ 12-14
{15}
16 км ясно +9.9 +7.8 87 +5 +5 1002.2 1001.0
ЮЗ 12-14
{15}
16 км ясно +9.9 +7.8 87 +5 +5 1002.7 1001.4 +9.8 +10.5
ЮЗ 12-14
{14}
14 км 1/0 +10.0 +8.1 88 +5 +5 1003.3 1002.1
ЮЗ 12-14
{15}
16 км 8/0 +10.2 +8.0 86 +5 +5 1003.8 1002.5
Ю 9-10
{13}
19 км 1/1 +10.3 +8.6 89 +6 +6 1004.0 1002.8
Ю 12-14
{14}
20 км 6/1 1500 м +10.4 +9.0 91 +6 +6 1004.1 1002.8
Ю 13-15
{16}
20 км 9/9 +10.4 +8.9 90 +5 +5 1003.7 1002.4
Ю 13-15
{15}
22 км 9/9 +10.6 +8.8 89 +6 +6 1003.3 1002.0
Ю 14-16
{16}
25 км 9/9 2000 м +10.7 +8.6 87 +6 +6 1002.8 1001.5
Ю 13-15
{16}
22 км слаб. ливневой дождь 10/10 1500 м +10.6 +8.9 89 +6 +6 1002.6 1001.3
Ю 14-16
{17}
10 км слаб. морось {дождь} 10/10 300 м +10.1 +8.6 90 +5 +5 1002.3 1001.0
Ю 13-15
{17}
20 км в посл. час морось 10/10 600 м +10.3 +8.8 90 +5 +5 1002.2 1000.9
ЮЗ 12-14
{15}
15 км 10/10 840 м +10.5 +9.2 92 +6 +6 1002.3 1001.1
ЮЗ 11-13
{14}
13 км {ливн. дождь, дождь} 9/9 1000 м +10.3 +9.1 92 +6 +6 1002.7 1001.4 +9.9 +10.9
ЮЗ 9-11
{12}
17 км 4/4 300 м +10.1 +9.0 93 +6 +6 1003.1 1001.8
ЮЗ 9-10
{10}
18 км 9/0 +10.0 +8.9 93 +6 +6 1003.3 1002.1
ЮЗ 10-11
{11}
21 км ясно +10.1 +9.1 94 +6 +6 1003.4 1002.1
ЮЗ 9-10
{11}
18 км ясно +10.1 +9.0 93 +6 +6 1003.5 1002.3
ЮЗ 9-11
{11}
16 км ясно +10.0 +8.9 93 +6 +6 1003.8 1002.5
ЮЗ 8-10
{10}
16 км 1/1 +10.1 +8.7 91 +6 +6 1004.0 1002.7
ЮЗ 9-10
{11}
17 км 4/4 +9.9 +8.3 90 +5 +5 1003.9 1002.7
ЮЗ 9-10
{10}
14 км ясно +10.1 +8.9 92 +6 +6 1003.8 1002.6
ЮЗ 10-11
{11}
16 км ясно +10.1 +8.5 90 +6 +6 1003.8 1002.5
Ю 11-12
{12}
16 км 1/1 300 м +10.0 +8.6 91 +5 +5 1003.8 1002.5
ЮЗ 11-12
{12}
14 км ясно +10.0 +8.6 91 +5 +5 1003.9 1002.7
ЮЗ 10-12
{13}
14 км ясно +10.1 +8.7 91 +6 +6 1004.4 1003.1 +9.9 +10.3
ЮЗ 9-11
{12}
13 км ясно +10.0 +8.7 92 +6 +6 1004.8 1003.5
ЮЗ 10-11
{13}
15 км ясно +10.1 +8.6 90 +6 +6 1005.2 1003.9
ЮЗ 9-10
{11}
16 км ясно +10.3 +9.0 92 +6 +6 1005.4 1004.2
ЮЗ 8-9
{10}
15 км ясно +10.4 +9.3 93 +6 +7 1005.7 1004.5
ЮЗ 8-9
{10}
15 км ясно +10.4 +9.3 93 +6 +7 1005.7 1004.5
ЮЗ 9-10
{10}
16 км ясно +10.4 +9.2 92 +6 +6 1006.0 1004.8
ЮЗ 8-9
{10}
16 км 8/8 1500 м +10.3 +9.2 93 +6 +6 1005.9 1004.7
Ю 8-9
{10}
15 км 9/9 1500 м +10.2 +9.4 95 +6 +6 1006.3 1005.1
Ю 9-10
{10}
13 км 9/9 1500 м +10.1 +9.5 96 +6 +6 1006.6 1005.3
Ю 7-8
{9}
12 км 10/10 1000 м +10.2 +9.6 96 +6 +6 1006.9 1005.6
ЮЗ 7-8
{9}
11 км 10/10 1000 м +10.1 +9.5 96 +6 +6 1007.1 1005.8
ЮЗ 7-8
{8}
10 км морось {ливн. дождь, дождь} 10/10 1230 м +10.0 +9.4 96 +6 +6 1007.2 1005.9 +9.9 +10.6
ЮЗ 6-8
{8}
27 км в посл. час морось 8/8 1380 м +10.0 +8.9 93 +6 +6 1007.5 1006.3
Местоположение метеостанции Лемланд Нихамн (Финляндия): широта 59.96 долгота 19.95 высота над уровнем моря 8 м.
В архиве по умолчанию представлена погода в Лемланд Нихамн за последнюю неделю. Архивные данные за месяц целиком и за предыдущие месяцы, начиная с января 2011 года, Вы можете получить, выбрав интересующий диапазон дат из раскрывающегося списка и нажав кнопку "Найти!".
*Определитесь, кто Вы:
Внимание! Время в таблицах - всемирное. Для получения местного времени необходимо прибавить поправку, которая равна 1 ч.
Смотрите также архив погоды в соседних городах и на ближайших метеорологических станциях:
Партнеры нашего сайта:      
Пояснения к столбцам:
  • Ветер - указаны скорость ветра в м/с - средняя за 10 мин, порывы в срок и между сроками (в фигурных скобках) и направление, откуда дует ветер: С - северный,
  • СВ - северо-восточный, В - восточный, ЮВ - юго-восточный, Ю - южный, ЮЗ - юго-западный, З - западный, СЗ - северо-западный.
  • Видимость - горизонтальная дальность видимости в метрах или километрах. При видимости от 1 до 10 км при отсутствии осадков обычно наблюдается дымка, при ухудшении видимости до 1 км и менее - туман. В сухую погоду видимость может ухудшаться дымом, пылью или мглою.
  • Явления - указаны атмосферные явления, наблюдавшиеся в срок или в последний час перед сроком; фигурными скобками обозначены явления, наблюдавшиеся между сроками (за 1-3 часа до срока); квадратными скобками обозначены град или гололедные отложения с указанием их диаметра в мм.
  • Облачность - указаны через наклонную черту общая и нижняя облачность в баллах и высота нижней границы облаков в метрах; квадратными скобками обозначены формы облаков: Ci - перистые, Cs - перисто-слоистые, Cc - перисто-кучевые, Ac - высококучевые, As - высокослоистые, Sc - слоисто-кучевые, Ns - слоисто-дождевые, Cu - кучевые, Cb - кучево-дождевые. Подробнее классификацию облаков см. в Атласе облаков (PDF).
  • T - Температура воздуха - температура, измеренная на высоте 2 м над землей.
  • Td - Температура точки росы - температура, при понижении до которой содержащийся в воздухе водяной пар достигнет насыщения.
  • f - Относительная влажность воздуха - влажноcть воздуха, измеренная на высоте 2 м над землей.
  • Te - Эффективная температура - температура, которую ощущает одетый по сезону человек в тени. Характеристика душности погоды. При расчете учитывается влияние влажности воздуха и скорости ветра на теплоощущения человека.
  • Tes - Эффективная температура на солнце - температура, которую ощущает человек, с поправкой на солнечный нагрев. Характеристика знойности погоды. Зависит от высоты солнца над горизонтом, облачности и скорости ветра. Ночью, в пасмурную погоду, а также при ветре 12 м/с и более поправка равна нулю.
  • P - Атмосферное давление - приведенное к уровню моря атмосферное давление.
  • Po - Атмосферное давление - измеренное на уровне метеостанции атмосферное давление.
  • Tmin - Минимальная температура - минимум температуры воздуха на высоте 2 м над землей.
  • Tmax - Максимальная температура - максимум температуры воздуха на высоте 2 м над землей.
  • R - Количество осадков - Количество выпавших осадков за период времени, мм. При наведении курсора мыши на число - период времени, за который выпало указанное количество осадков.
  • R24 - Количество осадков - Количество выпавших осадков за 24 часа, мм.
  • S - Снежный покров - Высота снежного покрова, см. При наведении курсора мыши на число - состояние снежного покрова и степень покрытия местности в баллах.